Location: Aalen
(48.8330°N, 10.1000°E)
Time: 07:20:38
(UTC+02:00)

UWE-3 - Pass Details

Date: 08 April 2023
Orbit: 576 x 670 km, 97.7° (Epoch: 29 May)

Event Time Altitude Azimuth Distance (km) Brightness Sun altitude
Rises 05:45:12 0° 0° (N) 2,949 ? -10.0°
Reaches altitude 10° 05:48:02 10° 342° (NNW) 2,016 ? -9.6°
Maximum altitude 05:50:55 18° 300° (WNW) 1,554 ? -9.1°
Enters shadow 05:53:33 11° 261° (W) 1,915 ? -8.7°
